2019-038K (44395 NORAD) Tracking and Keplerian Element Data

This shows tracking and keplerian element data for the satellite.

Feedback or suggestion? Click here.




ElementValue
Catalog44395
Name2019-038K
Epoch Orbit4118
Epoch Day94.13836159
Epoch Year2020
RAAN56.3424
Inclination97.5297
Eccentricity0.0026104
Argument of Perigee30.5344
Mean Anonmoly329.74
Mean Motion15.11887613
Decay Rate5.64E-06
L11 44395U 19038K 20094.13836159 .00000564 00000-0 36556-4 0 9991
L22 44395 97.5297 56.3424 0026104 30.5344 329.7400 15.11887613 41182

Live tracking and technical data element details for 2019-038K (NORAD 44395). 2019-038K can be tracked NOW for your location showing map with azimuth and elevation plus other details from your city location.

Track the satellite on the map from your city or location and see movement details for azimuth, elevation, latitude, longitude, range, height, and movement on the map or in text.







IsCatalogInMostPopularTable: catalog: 44395, numindb: 39
Update: records affected: 1



GetName: 44395 2019-038K

Hit Count: updated at: Thu, 09 Apr 2020 06:45:59 GMT